When you browse on this site, cookies collect data to enhance your experience and personalize the content and advertising you see.
Visit our Privacy Policy to learn more. By continuing to use the site, you agree to this use of cookies and data.
  • In Spain
  • List of Countries
  • For 7 days
  • Water Temperature
  • Satellite Maps
  • Weather Map
  • Weather Widgets
  • user-avatar
    Login

    Hourly Weather Atoyatempan

    Today, 17 December, Monday

    Time Temperature Precipitation Wind Pressure Humidity
    00:00 +12°C° 0 mm 2 mps 609 mmHg 74%
    01:00 +12°C° 0 mm 2 mps 608 mmHg 74%
    02:00 +12°C° 0 mm 1 mps 608 mmHg 75%
    03:00 +11°C° 0 mm 1 mps 608 mmHg 75%
    04:00 +11°C° 0 mm 1 mps 608 mmHg 76%
    05:00 +11°C° 0 mm 1 mps 608 mmHg 76%
    06:00 +12°C° 0 mm 1 mps 609 mmHg 70%
    07:00 +14°C° 0 mm 1 mps 610 mmHg 63%
    08:00 +16°C° 0 mm 1 mps 611 mmHg 56%
    09:00 +18°C° 0 mm 1 mps 611 mmHg 50%
    10:00 +20°C° 0 mm 1 mps 611 mmHg 44%
    11:00 +21°C° 0 mm 2 mps 612 mmHg 39%
    12:00 +21°C° 0 mm 2 mps 611 mmHg 37%
    13:00 +22°C° 0 mm 3 mps 611 mmHg 36%
    14:00 +22°C° 0 mm 3 mps 610 mmHg 35%
    15:00 +21°C° 0 mm 3 mps 610 mmHg 40%
    16:00 +19°C° 0 mm 2 mps 609 mmHg 46%
    17:00 +18°C° 0 mm 2 mps 608 mmHg 51%
    18:00 +17°C° 0 mm 2 mps 608 mmHg 54%
    19:00 +16°C° 0 mm 1 mps 608 mmHg 58%
    20:00 +15°C° 0 mm 1 mps 608 mmHg 62%
    21:00 +14°C° 0 mm 1 mps 608 mmHg 63%
    22:00 +14°C° 0 mm 1 mps 608 mmHg 65%
    23:00 +13°C° 0 mm 1 mps 608 mmHg 66%

    Tomorrow, 18 December, Tuesday

    Time Temperature Precipitation Wind Pressure Humidity
    00:00 +13°C° 0 mm 1 mps 607 mmHg 67%
    01:00 +13°C° 0 mm 1 mps 607 mmHg 68%
    02:00 +12°C° 0 mm 1 mps 606 mmHg 69%
    03:00 +12°C° 0 mm 1 mps 606 mmHg 70%
    04:00 +12°C° 0 mm 1 mps 606 mmHg 71%
    05:00 +11°C° 0 mm 1 mps 606 mmHg 71%
    06:00 +13°C° 0 mm 1 mps 607 mmHg 65%
    07:00 +15°C° 0 mm 1 mps 608 mmHg 59%
    08:00 +15°C° 0 mm 0 mps 609 mmHg 53%
    09:00 +19°C° 0 mm 1 mps 609 mmHg 49%
    10:00 +20°C° 0 mm 2 mps 609 mmHg 45%
    11:00 +21°C° 0 mm 3 mps 609 mmHg 41%
    12:00 +22°C° 0 mm 3 mps 609 mmHg 40%
    13:00 +22°C° 0 mm 4 mps 608 mmHg 39%
    14:00 +22°C° 0 mm 4 mps 607 mmHg 37%
    15:00 +21°C° 0 mm 4 mps 607 mmHg 41%
    16:00 +19°C° 0 mm 3 mps 607 mmHg 45%
    17:00 +18°C° 0 mm 2 mps 606 mmHg 48%
    18:00 +17°C° 0 mm 2 mps 607 mmHg 51%
    19:00 +16°C° 0 mm 2 mps 607 mmHg 54%
    20:00 +15°C° 0 mm 1 mps 607 mmHg 56%
    21:00 +15°C° 0 mm 1 mps 606 mmHg 58%
    22:00 +14°C° 0 mm 1 mps 606 mmHg 60%
    23:00 +14°C° 0 mm 1 mps 606 mmHg 62%

    Day after tomorrow, 19 December, Wednesday

    Time Temperature Precipitation Wind Pressure Humidity
    00:00 +14°C° 0 mm 1 mps 605 mmHg 66%
    01:00 +13°C° 0 mm 1 mps 605 mmHg 71%
    02:00 +13°C° 0 mm 1 mps 604 mmHg 75%
    03:00 +13°C° 0 mm 1 mps 604 mmHg 77%
    04:00 +12°C° 0 mm 1 mps 604 mmHg 79%
    05:00 +12°C° 0 mm 1 mps 604 mmHg 81%
    06:00 +13°C° 0 mm 1 mps 605 mmHg 76%
    07:00 +14°C° 0 mm 1 mps 606 mmHg 71%
    08:00 +16°C° 0 mm 1 mps 607 mmHg 66%
    09:00 +17°C° 0 mm 2 mps 607 mmHg 60%
    10:00 +19°C° 0 mm 3 mps 607 mmHg 54%
    11:00 +20°C° 0 mm 4 mps 607 mmHg 48%
    12:00 +21°C° 0 mm 5 mps 607 mmHg 46%
    13:00 +21°C° 0 mm 6 mps 606 mmHg 44%
    14:00 +21°C° 0 mm 6 mps 606 mmHg 42%
    15:00 +20°C° 0 mm 5 mps 605 mmHg 46%
    16:00 +19°C° 0 mm 5 mps 605 mmHg 50%
    17:00 +18°C° 0 mm 4 mps 605 mmHg 53%
    18:00 +17°C° 0 mm 3 mps 605 mmHg 57%
    19:00 +16°C° 0 mm 2 mps 605 mmHg 60%
    20:00 +15°C° 0 mm 1 mps 606 mmHg 63%
    21:00 +14°C° 0 mm 1 mps 606 mmHg 65%
    22:00 +13°C° 0 mm 1 mps 605 mmHg 66%
    23:00 +13°C° 0 mm 1 mps 605 mmHg 67%

    20 December, Thursday

    Time Temperature Precipitation Wind Pressure Humidity
    00:00 +12°C° 0 mm 1 mps 605 mmHg 69%
    01:00 +12°C° 0 mm 1 mps 605 mmHg 71%
    02:00 +11°C° 0 mm 1 mps 604 mmHg 72%
    03:00 +11°C° 0 mm 1 mps 604 mmHg 73%
    04:00 +11°C° 0 mm 1 mps 604 mmHg 74%
    05:00 +11°C° 0 mm 1 mps 604 mmHg 74%
    06:00 +12°C° 0 mm 1 mps 606 mmHg 66%
    07:00 +14°C° 0 mm 1 mps 607 mmHg 57%
    08:00 +16°C° 0 mm 1 mps 608 mmHg 49%
    09:00 +19°C° 0 mm 1 mps 608 mmHg 41%
    10:00 +20°C° 0 mm 1 mps 609 mmHg 33%
    11:00 +22°C° 0 mm 1 mps 609 mmHg 25%
    12:00 +23°C° 0 mm 2 mps 609 mmHg 24%
    13:00 +23°C° 0 mm 2 mps 609 mmHg 22%
    14:00 +24°C° 0 mm 2 mps 608 mmHg 21%
    15:00 +21°C° 0 mm 2 mps 608 mmHg 28%
    16:00 +19°C° 0 mm 3 mps 608 mmHg 36%
    17:00 +18°C° 0 mm 3 mps 608 mmHg 43%
    18:00 +17°C° 0 mm 3 mps 608 mmHg 50%
    19:00 +16°C° 0 mm 3 mps 608 mmHg 58%
    20:00 +13°C° 0 mm 4 mps 608 mmHg 66%
    21:00 +13°C° 0 mm 3 mps 608 mmHg 68%
    22:00 +12°C° 0 mm 3 mps 608 mmHg 71%
    23:00 +12°C° 0 mm 3 mps 608 mmHg 73%

    21 December, Friday

    Time Temperature Precipitation Wind Pressure Humidity
    00:00 +11°C° 0 mm 3 mps 607 mmHg 73%
    01:00 +11°C° 0 mm 3 mps 607 mmHg 73%
    02:00 +11°C° 0 mm 3 mps 607 mmHg 73%
    03:00 +10°C° 0 mm 3 mps 607 mmHg 75%
    04:00 +10°C° 0 mm 3 mps 607 mmHg 76%
    05:00 +10°C° 0 mm 3 mps 607 mmHg 78%
    06:00 +11°C° 0 mm 3 mps 608 mmHg 73%
    07:00 +11°C° 0 mm 3 mps 609 mmHg 67%
    08:00 +12°C° 0 mm 3 mps 609 mmHg 62%
    09:00 +14°C° 0 mm 3 mps 610 mmHg 54%
    10:00 +17°C° 0 mm 3 mps 610 mmHg 46%
    11:00 +19°C° 0 mm 3 mps 610 mmHg 38%
    12:00 +19°C° 0 mm 3 mps 610 mmHg 36%
    13:00 +20°C° 0 mm 3 mps 609 mmHg 35%
    14:00 +20°C° 0 mm 3 mps 609 mmHg 33%
    15:00 +19°C° 0 mm 3 mps 608 mmHg 40%
    16:00 +17°C° 0 mm 3 mps 608 mmHg 47%
    17:00 +15°C° 0 mm 4 mps 608 mmHg 54%
    18:00 +13°C° 0 mm 3 mps 608 mmHg 59%
    19:00 +12°C° 0 mm 3 mps 608 mmHg 64%
    20:00 +12°C° 0 mm 2 mps 608 mmHg 70%
    21:00 +12°C° 0 mm 2 mps 608 mmHg 71%
    22:00 +10°C° 0 mm 2 mps 607 mmHg 72%
    23:00 +10°C° 0 mm 2 mps 607 mmHg 73%

    22 December, Saturday

    Time Temperature Precipitation Wind Pressure Humidity
    00:00 +10°C° 0 mm 2 mps 607 mmHg 74%
    01:00 +9°C° 0 mm 2 mps 606 mmHg 74%
    02:00 +10°C° 0 mm 1 mps 606 mmHg 75%
    03:00 +10°C° 0 mm 1 mps 606 mmHg 74%
    04:00 +9°C° 0 mm 1 mps 606 mmHg 74%
    05:00 +9°C° 0 mm 1 mps 606 mmHg 73%
    06:00 +11°C° 0 mm 1 mps 607 mmHg 65%
    07:00 +13°C° 0 mm 1 mps 608 mmHg 56%
    08:00 +15°C° 0 mm 1 mps 609 mmHg 47%
    09:00 +18°C° 0 mm 1 mps 609 mmHg 40%
    10:00 +20°C° 0 mm 1 mps 609 mmHg 32%
    11:00 +22°C° 0 mm 1 mps 610 mmHg 25%
    12:00 +23°C° 0 mm 2 mps 609 mmHg 24%
    13:00 +23°C° 0 mm 2 mps 609 mmHg 22%
    14:00 +24°C° 0 mm 3 mps 609 mmHg 21%
    15:00 +21°C° 0 mm 3 mps 608 mmHg 27%
    16:00 +19°C° 0 mm 2 mps 608 mmHg 32%
    17:00 +18°C° 0 mm 2 mps 608 mmHg 38%
    18:00 +16°C° 0 mm 2 mps 608 mmHg 44%
    19:00 +15°C° 0 mm 1 mps 608 mmHg 49%
    20:00 +14°C° 0 mm 1 mps 608 mmHg 55%
    21:00 +13°C° 0 mm 1 mps 608 mmHg 57%
    22:00 +13°C° 0 mm 1 mps 607 mmHg 60%
    23:00 +12°C° 0 mm 1 mps 607 mmHg 62%
    Show more